Погода в Оргееве

Молдова     47°22′29″N   28°49′20″E
темп.,
°C
ветер,
м/с
пор.,
м/с
влажн.,
%
обл.,
%
осадки,
мм/ч
давл.,
гПа
погр.,
м
9 мая, вс
вс900:00+6зсз39755 0.0 1021255
03:00+5зсз39790 0.0 1023229
06:00+4зсз36811 0.0 1024152
09:00+9сз58640 0.0 1026688
12:00+13ссз57485 0.0 10261971
15:00+15ссз453799 0.0 10252502
18:00+15ссз233798 0.0 10252153
21:00+11вюв22520 0.0 102612
10 мая, пн
пн1000:00+9юв22550 0.0 102720
03:00+8ююв22575 0.0 102718
06:00+7юв22625 0.0 102724
09:00+12юв34565 0.0 1027362
12:00+17юв44455 0.0 10261498
15:00+18ююв33415 0.0 10251735
18:00+18вюв334294 0.0 10231760
21:00+13вюв335424 0.0 102342
11 мая, вт
вт1100:00+11юв22653 0.0 102421
03:00+9в22740 0.0 102316
06:00+8в11780 0.0 102210
09:00+13всв33570 0.0 1022447
12:00+17ссв33420 0.0 10201245
15:00+19ссв33360 0.0 10181392
18:00+19ссв34475 0.0 10171443
21:00+16св487074 0.0 1016366
12 мая, ср
ср1200:00+13всв128295 0.0 101645
03:00+12всв4687100 0.2 1014385
06:00+10всв4792100 3.6 1013373
09:00+11всв55728 3.7 1013685
12:00+14в335554 0.0 10121484
15:00+15в225386 0.0 10111133
18:00+12ююз1275100 0.0 1011179
21:00+11юв377793 0.1 1011372
13 мая, чт
чт1300:00+10юв4108363 0.0 1011516
03:00+9вюв389753 0.0 1010319
06:00+8юв31196100 0.0 1009360
09:00+11ююв4985100 0.0 1010613
12:00+14ююв5971100 0.0 10091058
15:00+19ююв7851100 0.0 10071822
18:00+17юв4767100 0.0 1007288
21:00+14юв5118025 0.0 1007281